| time (UTC) | temp C | wind direction | speed KPH | gust KPH | rain 1hr cm | rain 24hr cm | rain mn cm | humidity % | barometer mb |
| 20260508030203 | 9 | 143 | 0.0 | 3.2 | 0.00 | 0.00 | 0.00 | 85 | |
| 20260508025203 | 9 | 132 | 1.6 | 3.2 | 0.00 | 0.00 | 0.00 | 85 | |
| 20260508024418 | 9 | 109 | 1.6 | 4.8 | 0.00 | 0.00 | 0.00 | 84 | |
| 20260508023203 | 9 | 108 | 0.0 | 3.2 | 0.00 | 0.00 | 0.00 | 83 | |
| 20260508022415 | 9 | 106 | 1.6 | 6.4 | 0.00 | 0.00 | 0.00 | 83 | |
| 20260508021203 | 9 | 126 | 0.0 | 3.2 | 0.00 | 0.00 | 0.00 | 82 | |
| 20260508020417 | 9 | 132 | 0.0 | 3.2 | 0.00 | 0.00 | 0.00 | 82 | |
| 20260508015204 | 10 | 130 | 1.6 | 4.8 | 0.00 | 0.00 | 0.00 | 81 | |
| 20260508014203 | 10 | 147 | 1.6 | 4.8 | 0.00 | 0.00 | 0.00 | 80 | |
| 20260508013203 | 10 | 162 | 1.6 | 8.0 | 0.00 | 0.00 | 0.00 | 79 | |
| 20260508012203 | 10 | 119 | 1.6 | 3.2 | 0.00 | 0.00 | 0.00 | 78 | |
| 20260508011203 | 10 | 90 | 0.0 | 1.6 | 0.00 | 0.00 | 0.00 | 76 | |
| 20260508010203 | 10 | 107 | 0.0 | 4.8 | 0.00 | 0.00 | 0.00 | 76 | |
| 20260508005413 | 10 | 106 | 0.0 | 1.6 | 0.00 | 0.00 | 0.00 | 75 | |
| 20260508004203 | 10 | 95 | 1.6 | 3.2 | 0.00 | 0.00 | 0.00 | 75 | |
| 20260508003203 | 10 | 107 | 0.0 | 3.2 | 0.00 | 0.00 | 0.00 | 75 | |
| 20260508002204 | 10 | 110 | 3.2 | 8.0 | 0.00 | 0.00 | 0.00 | 74 | |
| 20260508001417 | 10 | 108 | 1.6 | 3.2 | 0.00 | 0.00 | 0.00 | 75 | |
| 20260508000205 | 10 | 106 | 1.6 | 4.8 | 0.00 | 0.00 | 0.00 | 74 | |
| 20260507235414 | 10 | 103 | 3.2 | 9.7 | 0.00 | 0.00 | 0.00 | 73 | |
| 20260507234205 | 10 | 109 | 1.6 | 8.0 | 0.00 | 0.00 | 0.00 | 73 | |
| 20260507233416 | 10 | 109 | 1.6 | 4.8 | 0.00 | 0.00 | 0.00 | 73 | |
| 20260507232206 | 10 | 105 | 1.6 | 8.0 | 0.00 | 0.00 | 0.00 | 74 | |
| 20260507231205 | 10 | 113 | 1.6 | 4.8 | 0.00 | 0.00 | 0.00 | 77 | |
| 20260507230205 | 10 | 136 | 0.0 | 1.6 | 0.00 | 0.00 | 0.00 | 78 | |
| 20260507225204 | 10 | 137 | 0.0 | 1.6 | 0.00 | 0.00 | 0.00 | 78 | |
| 20260507224203 | 10 | 109 | 0.0 | 1.6 | 0.00 | 0.00 | 0.00 | 78 | |
| 20260507223204 | 10 | 111 | 0.0 | 1.6 | 0.00 | 0.00 | 0.00 | 78 | |
| 20260507222417 | 11 | 124 | 0.0 | 1.6 | 0.00 | 0.00 | 0.00 | 77 | |
| 20260507221204 | 11 | 119 | 0.0 | 1.6 | 0.00 | 0.00 | 0.00 | 77 | |
| 20260507220203 | 11 | 160 | 0.0 | 1.6 | 0.00 | 0.00 | 0.00 | 77 | |
| 20260507215204 | 11 | 180 | 1.6 | 4.8 | 0.00 | 0.00 | 0.00 | 76 | |
| 20260507214206 | 11 | 174 | 1.6 | 3.2 | 0.00 | 0.00 | 0.00 | 75 | |
| 20260507213204 | 11 | 152 | 0.0 | 1.6 | 0.00 | 0.00 | 0.00 | 76 | |
| 20260507212204 | 11 | 172 | 0.0 | 1.6 | 0.00 | 0.00 | 0.00 | 76 | |
| 20260507211203 | 11 | 174 | 1.6 | 3.2 | 0.00 | 0.00 | 0.00 | 76 | |
| 20260507210203 | 11 | 149 | 0.0 | 3.2 | 0.00 | 0.00 | 0.00 | 78 | |
| 20260507205203 | 11 | 128 | 1.6 | 4.8 | 0.00 | 0.00 | 0.00 | 79 | |
| 20260507204203 | 11 | 118 | 0.0 | 4.8 | 0.00 | 0.00 | 0.00 | 78 | |
| 20260507203203 | 11 | 122 | 1.6 | 3.2 | 0.00 | 0.00 | 0.00 | 78 | |
| 20260507202414 | 11 | 116 | 0.0 | 3.2 | 0.00 | 0.00 | 0.00 | 79 | |
| 20260507201203 | 11 | 112 | 0.0 | 1.6 | 0.00 | 0.00 | 0.00 | 79 | |
| 20260507200204 | 11 | 107 | 0.0 | 1.6 | 0.00 | 0.00 | 0.00 | 80 | |
| 20260507195203 | 11 | 98 | 0.0 | 1.6 | 0.00 | 0.00 | 0.00 | 80 | |
| 20260507194203 | 11 | 88 | 0.0 | 3.2 | 0.00 | 0.00 | 0.00 | 80 | |
| 20260507193203 | 11 | 72 | 1.6 | 3.2 | 0.00 | 0.00 | 0.00 | 80 | |
| 20260507192203 | 11 | 51 | 0.0 | 1.6 | 0.00 | 0.00 | 0.00 | 80 | |
| 20260507191205 | 11 | 92 | 0.0 | 1.6 | 0.00 | 0.00 | 0.00 | 80 | |
| 20260507190205 | 11 | 93 | 1.6 | 3.2 | 0.00 | 0.00 | 0.00 | 79 | |
| 20260507185205 | 11 | 94 | 1.6 | 3.2 | 0.00 | 0.00 | 0.00 | 79 | |
| 20260507184206 | 11 | 93 | 1.6 | 6.4 | 0.00 | 0.00 | 0.00 | 78 | |
| 20260507183205 | 11 | 93 | 1.6 | 6.4 | 0.00 | 0.00 | 0.00 | 78 | |
| 20260507182205 | 11 | 94 | 1.6 | 4.8 | 0.00 | 0.00 | 0.00 | 77 | |
| 20260507181205 | 12 | 90 | 3.2 | 6.4 | 0.00 | 0.00 | 0.00 | 77 | |
| 20260507180417 | 12 | 92 | 1.6 | 4.8 | 0.00 | 0.00 | 0.00 | 78 | |
| 20260507175206 | 11 | 100 | 1.6 | 6.4 | 0.00 | 0.00 | 0.00 | 78 | |
| 20260507174205 | 11 | 97 | 1.6 | 6.4 | 0.00 | 0.00 | 0.00 | 78 | |
| 20260507173415 | 11 | 92 | 1.6 | 4.8 | 0.00 | 0.00 | 0.00 | 79 | |
| 20260507172205 | 12 | 75 | 1.6 | 4.8 | 0.00 | 0.00 | 0.00 | 80 | |
| 20260507171205 | 12 | 37 | 1.6 | 3.2 | 0.00 | 0.00 | 0.00 | 85 | |
| 20260507170205 | 12 | 46 | 0.0 | 1.6 | 0.00 | 0.00 | 0.00 | 84 | |
| 20260507165205 | 12 | 71 | 1.6 | 4.8 | 0.00 | 0.00 | 0.00 | 83 | |
| 20260507164205 | 12 | 67 | 1.6 | 3.2 | 0.00 | 0.00 | 0.00 | 84 | |
| 20260507163205 | 12 | 48 | 1.6 | 4.8 | 0.00 | 0.00 | 0.00 | 84 | |
| 20260507162205 | 11 | 34 | 1.6 | 3.2 | 0.00 | 0.00 | 0.00 | 83 | |
| 20260507161205 | 12 | 45 | 0.0 | 3.2 | 0.00 | 0.00 | 0.00 | 82 | |
| 20260507160206 | 12 | 69 | 1.6 | 3.2 | 0.00 | 0.00 | 0.00 | 82 | |
| 20260507155207 | 12 | 54 | 1.6 | 3.2 | 0.00 | 0.00 | 0.00 | 81 | |
| 20260507154205 | 12 | 27 | 1.6 | 3.2 | 0.00 | 0.00 | 0.00 | 82 | |
| 20260507153205 | 12 | 360 | 0.0 | 3.2 | 0.00 | 0.00 | 0.00 | 80 | |
| 20260507152205 | 12 | 2 | 1.6 | 3.2 | 0.00 | 0.00 | 0.00 | 77 | |
| 20260507151205 | 12 | 121 | 0.0 | 0.0 | 0.00 | 0.00 | 0.00 | 75 | |
| 20260507150205 | 12 | 135 | 1.6 | 4.8 | 0.00 | 0.00 | 0.00 | 74 | |
| 20260507145205 | 12 | 140 | 1.6 | 6.4 | 0.00 | 0.00 | 0.00 | 74 | |
| 20260507144205 | 12 | 114 | 1.6 | 6.4 | 0.00 | 0.00 | 0.00 | 73 | |
| 20260507143205 | 12 | 105 | 1.6 | 12.9 | 0.00 | 0.00 | 0.00 | 73 | |
| 20260507142204 | 13 | 107 | 1.6 | 12.9 | 0.00 | 0.00 | 0.00 | 71 | |
| 20260507141205 | 13 | 139 | 1.6 | 8.0 | 0.00 | 0.00 | 0.00 | 68 | |
| 20260507140414 | 13 | 184 | 1.6 | 6.4 | 0.00 | 0.00 | 0.00 | 67 | |
| 20260507135205 | 13 | 191 | 0.0 | 6.4 | 0.00 | 0.00 | 0.00 | 68 | |
| 20260507134204 | 13 | 195 | 1.6 | 4.8 | 0.00 | 0.00 | 0.00 | 67 | |
| 20260507133205 | 13 | 188 | 3.2 | 8.0 | 0.00 | 0.00 | 0.00 | 63 | |
| 20260507132205 | 13 | 192 | 4.8 | 11.3 | 0.00 | 0.00 | 0.00 | 62 | |
| 20260507131204 | 14 | 188 | 4.8 | 14.5 | 0.00 | 0.00 | 0.00 | 61 | |
| 20260507130204 | 14 | 181 | 4.8 | 9.7 | 0.00 | 0.00 | 0.00 | 60 | |
| 20260507125204 | 14 | 175 | 4.8 | 14.5 | 0.00 | 0.00 | 0.00 | 59 | |
| 20260507124204 | 14 | 172 | 4.8 | 12.9 | 0.00 | 0.00 | 0.00 | 58 | |
| 20260507123418 | 14 | 177 | 4.8 | 11.3 | 0.00 | 0.00 | 0.00 | 60 | |
| 20260507122205 | 14 | 188 | 3.2 | 8.0 | 0.00 | 0.00 | 0.00 | 58 | |
| 20260507121415 | 14 | 179 | 3.2 | 8.0 | 0.00 | 0.00 | 0.00 | 58 | |
| 20260507120416 | 14 | 172 | 4.8 | 11.3 | 0.00 | 0.00 | 0.00 | 58 | |
| 20260507115204 | 14 | 172 | 3.2 | 11.3 | 0.00 | 0.00 | 0.00 | 61 | |
| 20260507114205 | 13 | 127 | 3.2 | 9.7 | 0.00 | 0.00 | 0.00 | 63 | |
| 20260507113204 | 13 | 105 | 3.2 | 8.0 | 0.00 | 0.00 | 0.00 | 64 | |
| 20260507112204 | 13 | 123 | 4.8 | 11.3 | 0.00 | 0.00 | 0.00 | 65 | |
| 20260507111415 | 13 | 117 | 3.2 | 8.0 | 0.00 | 0.00 | 0.00 | 65 | |
| 20260507110417 | 14 | 111 | 4.8 | 11.3 | 0.00 | 0.00 | 0.00 | 66 | |
| 20260507105204 | 14 | 132 | 4.8 | 12.9 | 0.00 | 0.00 | 0.00 | 66 | |
| 20260507104205 | 15 | 145 | 4.8 | 9.7 | 0.00 | 0.00 | 0.00 | 67 | |
| 20260507103414 | 14 | 136 | 3.2 | 12.9 | 0.00 | 0.00 | 0.00 | 69 | |
| 20260507102415 | 14 | 120 | 4.8 | 12.9 | 0.00 | 0.00 | 0.00 | 69 | |
| 20260507101416 | 13 | 113 | 4.8 | 11.3 | 0.00 | 0.00 | 0.00 | 70 | |
| 20260507100205 | 13 | 108 | 4.8 | 12.9 | 0.00 | 0.00 | 0.00 | 71 | |
| 20260507095205 | 12 | 105 | 3.2 | 9.7 | 0.00 | 0.00 | 0.00 | 73 | |
| 20260507094204 | 12 | 109 | 3.2 | 6.4 | 0.00 | 0.00 | 0.00 | 75 | |
| 20260507093204 | 12 | 101 | 3.2 | 9.7 | 0.00 | 0.00 | 0.00 | 74 | |
| 20260507092204 | 11 | 84 | 3.2 | 11.3 | 0.00 | 0.00 | 0.00 | 76 | |
| 20260507091204 | 11 | 98 | 4.8 | 9.7 | 0.00 | 0.00 | 0.00 | 77 | |
| 20260507090205 | 11 | 127 | 3.2 | 9.7 | 0.00 | 0.00 | 0.00 | 78 | |
| 20260507085204 | 11 | 111 | 1.6 | 6.4 | 0.00 | 0.00 | 0.00 | 79 | |
| 20260507084414 | 10 | 95 | 1.6 | 6.4 | 0.00 | 0.00 | 0.00 | 81 | |
| 20260507083204 | 10 | 106 | 1.6 | 6.4 | 0.00 | 0.00 | 0.00 | 82 | |
| 20260507082416 | 9 | 108 | 1.6 | 4.8 | 0.00 | 0.00 | 0.00 | 83 | |
| 20260507081204 | 8 | 92 | 1.6 | 6.4 | 0.00 | 0.00 | 0.00 | 84 | |
| 20260507080204 | 8 | 86 | 1.6 | 6.4 | 0.00 | 0.00 | 0.00 | 85 | |
| 20260507075204 | 8 | 98 | 1.6 | 4.8 | 0.00 | 0.00 | 0.00 | 86 | |
| 20260507074205 | 8 | 91 | 1.6 | 4.8 | 0.00 | 0.00 | 0.00 | 87 | |
| 20260507073205 | 7 | 88 | 3.2 | 8.0 | 0.00 | 0.00 | 0.00 | 87 | |
| 20260507072204 | 7 | 88 | 3.2 | 8.0 | 0.00 | 0.00 | 0.00 | 87 | |
| 20260507071205 | 7 | 80 | 1.6 | 9.7 | 0.00 | 0.00 | 0.00 | 88 | |
| 20260507070204 | 7 | 79 | 1.6 | 4.8 | 0.00 | 0.00 | 0.00 | 88 | |
| 20260507065204 | 7 | 103 | 0.0 | 4.8 | 0.00 | 0.00 | 0.00 | 88 | |
| 20260507064205 | 7 | 95 | 0.0 | 3.2 | 0.00 | 0.00 | 0.00 | 89 | |
| 20260507063417 | 7 | 96 | 1.6 | 4.8 | 0.00 | 0.00 | 0.00 | 89 | |
| 20260507062204 | 7 | 93 | 0.0 | 4.8 | 0.00 | 0.00 | 0.00 | 89 | |
| 20260507061204 | 7 | 80 | 1.6 | 6.4 | 0.00 | 0.00 | 0.00 | 89 | |
| 20260507060204 | 6 | 81 | 1.6 | 4.8 | 0.00 | 0.00 | 0.00 | 89 | |
| 20260507055415 | 6 | 83 | 1.6 | 4.8 | 0.00 | 0.00 | 0.00 | 90 | |
| 20260507054416 | 6 | 77 | 1.6 | 6.4 | 0.00 | 0.00 | 0.00 | 90 | |
| 20260507053204 | 6 | 81 | 1.6 | 6.4 | 0.00 | 0.00 | 0.00 | 90 | |
| 20260507052204 | 6 | 81 | 0.0 | 3.2 | 0.00 | 0.00 | 0.00 | 90 | |
| 20260507051414 | 6 | 79 | 3.2 | 8.0 | 0.00 | 0.00 | 0.00 | 90 | |
| 20260507050415 | 6 | 81 | 1.6 | 4.8 | 0.00 | 0.00 | 0.00 | 90 | |
| 20260507045204 | 6 | 79 | 3.2 | 6.4 | 0.00 | 0.00 | 0.00 | 90 | |
| 20260507044204 | 6 | 77 | 3.2 | 6.4 | 0.00 | 0.00 | 0.00 | 90 | |
| 20260507043203 | 6 | 78 | 1.6 | 6.4 | 0.00 | 0.00 | 0.00 | 90 | |
| 20260507042204 | 6 | 86 | 1.6 | 6.4 | 0.00 | 0.00 | 0.00 | 89 | |
| 20260507041203 | 6 | 83 | 1.6 | 4.8 | 0.00 | 0.00 | 0.00 | 89 | |
| 20260507040203 | 6 | 76 | 3.2 | 8.0 | 0.00 | 0.00 | 0.00 | 89 | |
| 20260507035203 | 6 | 75 | 3.2 | 8.0 | 0.00 | 0.00 | 0.00 | 89 | |
| 20260507034203 | 6 | 76 | 3.2 | 8.0 | 0.00 | 0.00 | 0.00 | 89 | |
| 20260507033203 | 6 | 78 | 3.2 | 6.4 | 0.00 | 0.00 | 0.00 | 88 | |
| 20260507032204 | 6 | 79 | 3.2 | 11.3 | 0.00 | 0.00 | 0.00 | 88 | |
| 20260507031415 | 6 | 79 | 3.2 | 6.4 | 0.00 | 0.00 | 0.00 | 88 | |
| 20260507030416 | 6 | 79 | 3.2 | 8.0 | 0.00 | 0.00 | 0.00 | 87 |